Regional Weather Roundup
Issued by NWS State College, PA

Home | Current Version | Previous Version | Graphics & Text | Print | Product List | Glossary Off
Versions: 1 2 3 4 5 6 7 8 9 10 11 12 13 14 15 16 17 18 19 20 21 22 23 24 25 26 27 28 29 30 31 32 33 34 35 36 37 38 39 40 41 42 43 44 45 46 47 48 49 50

000
ASUS41 KCTP 200310
RWRCTP

REGIONAL WEATHER ROUNDUP
NATIONAL WEATHER SERVICE STATE COLLEGE PA
1100 PM EDT TUE AUG 19 2014

Note: "fair" indicates few or no clouds below 12,000 feet with no
significant weather and/or obstructions to visibility.

* = STATION THAT DOES NOT REPORT PRECIPITATION /E.G. RAIN...SNOW...ETC/
    THUNDER OR FOG.

PAZ002>004-007>009-013>016-020>023-029>032-200400-
WESTERN PENNSYLVANIA

CITY           SKY/WX    TMP DP  RH WIND       PRES   REMARKS
ERIE           RAIN      68  63  84 W6        29.90R
MEADVILLE      MOCLDY    70  62  76 NW8G16    29.92R
FRANKLIN*      MOCLDY    68  61  77 SE5       29.91S
NEW CASTLE     NOT AVBL
BEAVER COUNTY  NOT AVBL
BUTLER*        CLEAR     68  63  83 CALM      29.91S
PITTSBURGH INT PTCLDY    73  66  78 S3        29.88R
PITTSBURGH     CLEAR     74  63  68 S5        29.89R
INDIANA*       CLOUDY    73  68  83 S9        29.95R
LATROBE        PTCLDY    72  70  94 CALM      29.91R
WASHINGTON CO* CLEAR     66  64  94 CALM      29.90R
$$

PAZ004>006-010>012-017>019-024>028-033>037-041-042-045-046-049>053-200400-
CENTRAL PENNSYLVANIA

CITY           SKY/WX    TMP DP  RH WIND       PRES   REMARKS
BRADFORD       CLEAR     63  62  97 SE3       29.94S FOG
DUBOIS         CLEAR     68  66  93 SE6       29.93R
CLEARFIELD     CLEAR     64  64 100 N3        29.94S FOG
JOHNSTOWN      PTCLDY    68  64  87 S6        29.97R
ALTOONA        CLEAR     66  64  93 CALM      29.95R
STATE COLLEGE  PTCLDY    65  64  96 CALM      29.93S FOG
WILLIAMSPORT   MOCLDY    67  63  87 CALM      29.90S
SELINSGROVE    MOCLDY    65  63  93 CALM      29.92R FOG
FT INDIANTOWN  CLOUDY    71  70  99 NE2       29.92R
CAPITAL CITY   CLOUDY    76  64  66 S5        29.91R
HARRISBURG     CLOUDY    74  67  78 SE3       29.90S
YORK           CLOUDY    74  65  73 CALM      29.91S
$$

PAZ038>040-043-044-047-048-054-055-060>062-067>071-200400-
EASTERN PENNSYLVANIA

CITY           SKY/WX    TMP DP  RH WIND       PRES   REMARKS
SCRANTON       CLOUDY    72  61  68 CALM      29.93R
MOUNT POCONO   CLOUDY    67  59  75 S3        29.98R
ALLENTOWN      CLOUDY    76  62  62 SE3       29.92R
QUAKERTOWN*    MOCLDY    72  64  78 CALM      29.94R
READING        CLOUDY    76  65  68 CALM      29.91R
LANCASTER      CLOUDY    74  65  73 S7        29.92R
COATESVILLE    MOCLDY    70  66  88 CALM      29.95R
POTTSTOWN      MOCLDY    73  63  70 S3        29.94R
BLUE BELL      MOCLDY    73  63  68 SE3       29.92R
DOYLESTOWN     CLOUDY    70  63  78 SE5       29.93R
WILLOW GROVE   NOT AVBL
NORTH PHILA    MOCLDY    74  61  63 S5        29.94R
PHILADELPHIA   CLOUDY    74  63  68 SE6       29.93R
$$


USA.gov is the U.S. government's official web portal to all federal, state and local government web resources and services.